Weather in Morozova

Russia / Irkutsk Oblast     53°11′51″N   103°31′06″E
temp.,
°C
wind,
m/s
gust,
m/s
humid.,
%
clouds,
%
prec.,
mm/h
press.,
hPa
HPBL,
m
1 march, mon
mon123:00−23sse1184100 0.0 103920
02:00−23se228899 0.0 103820
05:00−25se239036 0.0 103420
08:00−25ese229643 0.0 103319
11:00−20se239276 0.0 1029237
14:00−15sse237966 0.0 1024366
17:00−14nnw018827 0.0 102066
20:00−15e228864 0.0 101921
2 march, tue
tue223:00−14ese3586100 0.0 101797
02:00−17se238696 0.0 101538
05:00−16se2494100 0.0 1013134
08:00−18sse1293100 0.0 101220
11:00−14ssw2288100 0.0 1011212
14:00−11nw1190100 0.1 1010240
17:00−9n2392100 0.1 1010268
20:00−14nnw2295100 0.1 101322
3 march, wed
wed323:00−14nnw2296100 0.1 101434
02:00−14n2296100 0.8 101424
05:00−14nnw1296100 0.1 101422
08:00−15nnw2396100 0.2 101673
11:00−14nnw3594100 0.1 1016280
14:00−13nnw4689100 0.2 1017426
17:00−14nnw4781100 0.0 1019413
20:00−17nnw4884100 0.0 1025190
4 march, thu
thu423:00−20nnw3590100 0.0 1028102
02:00−23nnw229098 0.0 103022
05:00−26nnw229073 0.0 103219
08:00−27n229171 0.0 103519
11:00−22nne118291 0.0 1035198
14:00−17s017466 0.0 1034303
17:00−16ese11770 0.0 1034225
20:00−21e11840 0.0 103720
5 march, fri
fri523:00−21ese22930 0.0 103720
02:00−22ese348417 0.0 103673
05:00−22ese34850 0.0 103570
08:00−20ese410880 0.0 1035204
11:00−14se6108522 0.0 1031415
14:00−10se598532 0.0 1027436
17:00−8se51086100 0.0 1024432
20:00−12se6138950 0.0 1025341